Simultaneous Nadir Overpasses (SNOs) Predictions

Prediction of SNOs between GOES-16 and NOAA-19 Satellite Orbit:

Table of predicted SNOs for the next 14.0 days since TLE Epoch: 6/2/2017
Index Date Time (GOES-16) GOES-16 Lat,Lon NOAA-19 Lat,Lon Distance(km) Time Diff (sec)
1 06/02/2017 21:14:37 0.00, -89.45 -0.14, -89.99 62.04 80
2 06/03/2017 21:05:50 0.00, -89.44 0.55, -87.21 255.77 80
3 06/06/2017 09:27:25 -0.00, -89.46 0.66, -92.34 329.01 80
4 06/07/2017 09:15:58 -0.00, -89.45 0.05, -89.55 11.45 80
5 06/08/2017 09:01:51 -0.00, -89.45 -0.63, -86.77 306.94 80
6 06/10/2017 21:23:25 0.00, -89.42 -0.59, -91.89 282.32 80
7 06/11/2017 21:14:38 0.01, -89.42 0.10, -89.11 35.98 80
8 06/12/2017 21:03:11 0.01, -89.42 0.73, -86.32 354.17 80
9 06/15/2017 09:24:47 -0.02, -89.45 0.46, -91.46 229.76 80
10 06/16/2017 09:13:20 -0.02, -89.45 -0.23, -88.68 88.87 80




NCC Satellite Simultaneous Nadir Overpasses (SNOs) Prediction Service
